Home > Weather > Vieux Fort > Past weeks

Flag for Saint Lucia Weather for the Past 2 Weeks in Vieux Fort, Saint Lucia

Now
79 °F

Passing clouds.


Feels Like: 82 °F
Forecast: 77 / 83 °F
Wind: 15 mph from East

Location: Hewanorra International Airport

Current Time: Feb 13, 2016 at 10:56:18 PM

Latest Report: Feb 13, 2016 at 10:00 PM


Visibility: N/A

Pressure: 30.01 "Hg

Humidity: 79%

Dew point: 72 °F

Location of Vieux FortLocation

Historic Weather in Vieux Fort — Graph

°F

Vieux Fort Temperature Yesterday

Maximum temperature yesterday: 84 °F (at 11:00 AM)
Minimum temperature yesterday: 79 °F (at 1:00 AM)
Average temperature yesterday: 81 °F

High & Low Weather Summary for the Past Weeks

 TemperatureHumidityPressure
High86 °F (Feb 1, 1:00 PM)94% (Jan 31, 8:00 AM)30.12 "Hg (Jan 31, 8:00 AM)
Low70 °F (Feb 4, 6:00 AM)55% (Feb 1, 1:00 PM)29.86 "Hg (Feb 4, 3:00 PM)
Average80 °F76%30.00 "Hg
* Reported Jan 29 10:00 PM — Feb 13 9:00 PM, Vieux Fort, Weather by CustomWeather, © 2016

Note: Actual official high and low records may vary slightly from our data, if they occured in-between our weather recording intervals... More about our weather records

Advertising

Vieux Fort Weather History for the Previous 24 Hours

 ConditionsComfort  
Time TempWeatherWind HumidityBarometerVisibility
9:00 PM
Sat, Feb 13
79 °FPassing clouds.16 mph74%30.01 "HgN/A
8:00 PM79 °FPassing clouds.16 mph74%29.98 "HgN/A
7:00 PM81 °FPassing clouds.16 mph70%29.98 "HgN/A
6:00 PM81 °FPassing clouds.16 mph70%29.95 "HgN/A
5:00 PM82 °FPassing clouds.16 mph70%29.95 "HgN/A
4:00 PM84 °FScattered clouds.16 mph66%29.95 "HgN/A
3:00 PM84 °FScattered clouds.18 mph66%29.95 "HgN/A
2:00 PM84 °FPartly sunny.17 mph62%29.98 "HgN/A
1:00 PM84 °FScattered clouds.17 mph62%30.01 "HgN/A
12:00 PM84 °FPassing clouds.18 mph62%30.01 "HgN/A
11:00 AM84 °FPassing clouds.21 mph62%30.04 "HgN/A
10:00 AM84 °FPassing clouds.17 mph62%30.04 "HgN/A
9:00 AM82 °FPassing clouds.21 mph66%30.04 "HgN/A
8:00 AM79 °FPassing clouds.20 mph74%30.01 "HgN/A
7:00 AM79 °FPassing clouds.16 mph74%29.98 "HgN/A
6:00 AM77 °FPassing clouds.18 mph69%29.98 "HgN/A
5:00 AM79 °FPassing clouds.18 mph70%29.98 "HgN/A
4:00 AM79 °FPassing clouds.17 mph70%29.98 "HgN/A
3:00 AM79 °FPassing clouds.18 mph70%29.98 "HgN/A
2:00 AM79 °FPassing clouds.20 mph70%29.98 "HgN/A
1:00 AM79 °FPassing clouds.20 mph70%30.01 "HgN/A
12:00 AM79 °FPassing clouds.17 mph74%30.01 "HgN/A
11:00 PM
Fri, Feb 12
79 °FPassing clouds.18 mph74%30.04 "HgN/A
10:00 PM79 °FPassing clouds.18 mph74%30.04 "HgN/A
Weather by CustomWeather, © 2016

See weather overviewHow to use our weather pages